Date,TemperatureHighF,TemperatureAvgF,TemperatureLowF,DewpointHighF,DewpointAvgF,DewpointLowF,HumidityHigh,HumidityAvg,HumidityLow,PressureMaxIn,PressureMinIn,WindSpeedMaxMPH,WindSpeedAvgMPH,GustSpeedMaxMPH,PrecipitationSumIn
2013-9-1,92.2,79.2,71.9,79.6,74.1,70.7,98,86,55,29.98,29.88,12,2,0,0.64
2013-9-2,92.2,79.0,71.7,78.5,74.0,71.1,98,86,54,30.00,29.88,14,1,14,0.28
2013-9-3,90.8,79.8,73.1,78.8,75.0,72.5,98,86,62,30.00,29.90,11,1,0,0.05
2013-9-4,92.6,79.8,72.7,81.1,74.3,70.6,98,85,50,30.08,29.97,11,1,0,0.00
2013-9-5,93.0,80.5,72.8,79.4,75.1,70.7,98,85,59,30.10,30.00,9,1,0,0.04
2013-9-6,88.3,77.8,72.3,79.3,74.0,71.2,97,89,69,30.06,29.99,10,1,0,0.00
2013-9-7,87.5,78.0,71.0,76.7,72.6,70.1,98,84,61,30.04,29.95,11,1,0,0.02
2013-9-8,86.7,76.5,68.0,73.6,70.1,67.4,98,82,57,29.99,29.92,12,1,12,0.00
2013-9-9,86.8,76.4,67.9,76.4,70.7,67.2,98,84,62,30.07,29.96,10,0,0,0.00
2013-9-10,87.6,78.5,70.1,76.6,71.9,68.7,97,81,63,30.14,30.04,10,1,0,0.07
2013-9-11,87.0,77.4,70.1,78.4,73.2,69.2,98,88,68,30.12,30.03,8,0,0,0.00
2013-9-12,85.2,75.9,70.4,78.1,73.0,69.4,98,91,71,30.05,29.90,7,0,0,0.15
2013-9-13,92.3,79.5,70.6,77.0,72.1,65.2,98,80,43,29.92,29.78,7,1,0,0.01
2013-9-14,93.0,79.0,71.6,78.3,73.2,67.8,97,84,48,30.00,29.82,9,1,0,1.33
2013-9-15,88.0,78.9,70.8,80.3,75.1,70.2,99,89,70,30.09,29.98,8,1,0,0.01
2013-9-16,88.0,79.4,71.9,78.7,74.7,71.0,98,86,67,30.09,30.00,9,1,0,0.00
2013-9-17,86.8,78.2,71.7,78.3,74.2,71.1,98,88,71,30.10,30.01,11,1,0,0.08
2013-9-18,80.3,75.8,73.5,76.5,72.8,70.6,97,91,82,30.08,30.02,11,1,0,1.08
2013-9-19,85.5,77.2,71.0,77.8,72.1,68.7,97,85,73,30.08,30.01,11,0,0,0.06
2013-9-20,84.3,75.3,68.2,76.0,70.5,67.3,97,86,66,30.05,29.93,9,0,0,0.00
2013-9-21,85.3,75.8,67.2,74.4,70.4,66.5,98,84,60,29.95,29.76,10,1,0,0.02
2013-9-22,81.6,75.3,71.7,76.9,72.7,70.3,97,92,81,29.85,29.74,12,1,13,0.20
2013-9-23,81.0,74.7,71.2,77.2,73.1,70.5,98,95,88,29.97,29.83,6,0,0,0.03
2013-9-24,81.8,75.0,72.2,78.2,73.8,71.2,98,96,87,29.96,29.82,6,0,0,0.34
2013-9-25,83.2,76.5,72.6,75.9,73.9,71.8,98,92,77,29.83,29.74,15,1,15,0.01
2013-9-26,79.1,73.9,69.2,76.0,71.8,67.7,98,93,81,29.90,29.74,9,1,0,0.09
2013-9-27,82.5,73.1,68.1,74.4,70.2,67.1,97,91,75,30.00,29.87,11,2,0,0.17
2013-9-28,77.8,73.3,70.7,73.2,70.7,68.7,97,92,80,30.07,29.96,11,1,0,0.36